Location: eljas
(40.1958°N, 6.8661°W)
Time: 08:19:48
(UTC+01:00)

Amateur Radio Satellites - All Passes

Search period start: 03 March 2015 07:49
Search period end: 04 March 2015 07:49
Location: eljas, 40.1958°N, 6.8661°W

Satellite Date Start Highest point End Downlink Frequencies (MHz)
Time Altitude Azimuth
Cubesat XI-IV 03 Mar 07:52:39 07:58:04 82° 103° (ESE) 08:03:26 437.490
CUTE-I 03 Mar 08:01:35 08:06:59 84° 286° (WNW) 08:12:20 437.470
CUBESAT XI-V 03 Mar 08:13:18 08:17:06 23° 267° (W) 08:20:49 437.345
PCSat 03 Mar 08:22:08 08:26:35 25° 252° (WSW) 08:30:53 145.827
STRAND 1 03 Mar 08:23:35 08:28:12 32° 264° (W) 08:32:47 437.568
RS-15 03 Mar 08:28:17 08:39:03 47° 44° (NE) 08:50:24 29.354- 29.394
HO-68 03 Mar 08:40:01 08:42:08 12° 85° (E) 08:44:51 435.675
AIST 1 03 Mar 08:42:20 08:46:41 70° 280° (W) 08:51:04
ISS 03 Mar 08:57:18 08:58:45 13° 130° (SE) 09:00:19 145.825
AAUSAT CUBESAT 2 03 Mar 09:28:28 09:29:43 11° 88° (E) 09:31:13 437.432
COMPASS 1 03 Mar 09:30:28 09:32:40 14° 90° (E) 09:35:03 437.405
GONETS M04 03 Mar 09:32:15 09:40:18 41° 72° (ENE) 09:48:30
Cubesat XI-IV 03 Mar 09:34:50 09:37:32 14° 299° (WNW) 09:39:59 437.490
CUTE-I 03 Mar 09:44:30 09:46:20 11° 301° (WNW) 09:47:51 437.470
SEEDS 03 Mar 09:56:58 10:00:51 35° 97° (E) 10:04:45 437.485
CANX-2 03 Mar 10:00:30 10:04:40 51° 99° (E) 10:08:50 2200.000
TIGRISAT 03 Mar 10:01:42 10:03:26 12° 65° (ENE) 10:05:22 435.000
BRITE-PL 03 Mar 10:05:03 10:09:38 87° 102° (ESE) 10:13:54 437.365/2234.400
GOMX 1 03 Mar 10:08:17 10:12:38 60° 100° (E) 10:16:46 467.674
ANTELSAT 03 Mar 10:14:16 10:17:07 18° 67° (ENE) 10:20:04 437.575/2403.000
CUTE 1.7 + AOD 2 03 Mar 10:18:59 10:23:16 77° 102° (ESE) 10:27:31 437.475
O/OREOS (USA 219) 03 Mar 10:20:34 10:25:01 56° 108° (ESE) 10:29:32 437.305
HO-68 03 Mar 10:23:57 10:31:11 77° 104° (ESE) 10:38:23 435.675
UWE-3 03 Mar 10:28:23 10:30:48 15° 91° (E) 10:33:23 435.000/436.395/437.385
POLYITAN 1 03 Mar 10:31:25 10:33:46 15° 66° (ENE) 10:36:18 437.675
ISS 03 Mar 10:31:38 10:34:51 65° 326° (NW) 10:38:04 145.825
POPSAT HIP 1 03 Mar 10:31:47 10:34:07 15° 66° (ENE) 10:36:37 437.405
DELFI C3 03 Mar 10:32:42 10:35:56 23° 94° (E) 10:39:14 145.870
SO-50 03 Mar 10:35:14 10:39:04 22° 44° (NE) 10:42:59 436.795
RS-15 03 Mar 10:40:46 10:51:56 58° 246° (WSW) 11:03:27 29.354- 29.394
DOVE 4 03 Mar 10:41:34 10:45:51 83° 283° (WNW) 10:50:00 437.250
CINEMA 3 03 Mar 10:47:03 10:51:11 57° 100° (E) 10:55:16 145.822/145.860
NANOSAT C BR1 03 Mar 10:53:34 10:57:02 25° 69° (ENE) 11:00:35 145.865
Oscar 11 03 Mar 10:56:30 11:00:46 56° 100° (E) 11:05:02 145.826/435.025
AAUSAT CUBESAT 2 03 Mar 11:01:41 11:05:49 56° 285° (WNW) 11:09:56 437.432
COMPASS 1 03 Mar 11:04:38 11:08:40 45° 287° (WNW) 11:12:41 437.405
CUBEBUG 2 03 Mar 11:05:22 11:09:25 50° 99° (E) 11:13:29 437.445
UNISAT 6 03 Mar 11:10:27 11:14:51 72° 76° (ENE) 11:19:10 437.425
DX 1 03 Mar 11:21:27 11:25:40 47° 99° (E) 11:29:53 434.975-435.025
QB50P1 03 Mar 11:25:40 11:29:52 57° 74° (ENE) 11:34:05 145.935-145.965
AISAT 03 Mar 11:26:58 11:30:26 22° 94° (E) 11:33:57 437.250
GONETS M04 03 Mar 11:29:06 11:37:15 44° 271° (W) 11:45:17
QB50P2 03 Mar 11:29:36 11:33:51 65° 75° (ENE) 11:38:06 145.880/145.840
SEEDS 03 Mar 11:33:23 11:36:28 19° 292° (WNW) 11:39:27 437.485
BUGSAT 1 03 Mar 11:34:04 11:38:13 52° 73° (ENE) 11:42:25 437.445
TIGRISAT 03 Mar 11:35:24 11:39:47 62° 259° (W) 11:44:06 435.000
VELOX 1 03 Mar 11:36:04 11:39:52 27° 95° (E) 11:43:40 145.980
50 SAT 03 Mar 11:37:09 11:40:29 26° 95° (E) 11:43:52 437.505
CANX-2 03 Mar 11:37:55 11:40:14 14° 294° (WNW) 11:42:23 2200.000
DANDE 03 Mar 11:40:23 11:41:13 11° 69° (ENE) 11:42:10 436.750
FUNcube-1 03 Mar 11:41:59 11:46:09 90° 84° (E) 11:50:20 145.935
ZACube-1 03 Mar 11:43:23 11:47:33 86° 287° (WNW) 11:51:44 437.345
HUMSAT D 03 Mar 11:43:42 11:47:40 47° 99° (E) 11:51:40 437.325/437.525
DUCHIFAT 1 03 Mar 11:44:19 11:48:36 88° 257° (WSW) 11:52:54 145.980
GOMX 1 03 Mar 11:48:32 11:50:16 12° 297° (WNW) 11:51:46 467.674
ANTELSAT 03 Mar 11:49:28 11:53:40 41° 262° (W) 11:57:47 437.575/2403.000
UKube-1 03 Mar 11:50:26 11:54:49 84° 285° (WNW) 11:59:08 .
ESTCUBE 1 03 Mar 11:53:21 11:56:44 21° 93° (E) 12:00:14 437.505/2401.250
O/OREOS (USA 219) 03 Mar 12:02:00 12:04:53 16° 307° (NW) 12:07:38 437.305
UWE-3 03 Mar 12:03:42 12:07:36 40° 288° (WNW) 12:11:29 435.000/436.395/437.385
POLYITAN 1 03 Mar 12:05:11 12:09:22 49° 261° (W) 12:13:32 437.675
POPSAT HIP 1 03 Mar 12:05:29 12:09:40 49° 261° (W) 12:13:51 437.405
CUSAT 1 03 Mar 12:06:19 12:08:50 43° 79° (E) 12:11:24 437.405
DELFI C3 03 Mar 12:07:39 12:11:08 27° 290° (WNW) 12:14:34 145.870
ISS 03 Mar 12:09:42 12:11:46 16° 344° (NNW) 12:13:49 145.825
HO-68 03 Mar 12:13:00 12:18:15 22° 302° (WNW) 12:23:16 435.675
SO-50 03 Mar 12:15:09 12:20:00 55° 242° (WSW) 12:24:46 436.795
CINEMA 3 03 Mar 12:26:20 12:27:59 12° 295° (WNW) 12:29:24 145.822/145.860
NANOSAT C BR1 03 Mar 12:29:08 12:32:50 27° 265° (W) 12:36:29 145.865
Oscar 11 03 Mar 12:34:20 12:36:32 13° 295° (WNW) 12:38:33 145.826/435.025
CUBEBUG 2 03 Mar 12:43:40 12:45:47 13° 294° (WNW) 12:47:43 437.445
DX 1 03 Mar 12:58:51 13:01:35 16° 295° (WNW) 13:04:09 434.975-435.025
AISAT 03 Mar 13:03:08 13:07:07 32° 290° (WNW) 13:11:01 437.250
QB50P1 03 Mar 13:04:29 13:06:12 12° 271° (W) 13:07:39 145.935-145.965
CUBEBUG 1 03 Mar 13:04:44 13:09:09 71° 285° (WNW) 13:13:29 437.445
QB50P2 03 Mar 13:09:29 13:10:17 10° 272° (W) 13:10:48 145.880/145.840
BUGSAT 1 03 Mar 13:12:01 13:14:06 13° 270° (W) 13:15:58 437.445
50 SAT 03 Mar 13:12:19 13:15:24 22° 290° (WNW) 13:18:25 437.505
VELOX 1 03 Mar 13:12:37 13:16:23 27° 291° (WNW) 13:20:04 145.980
HUMSAT D 03 Mar 13:20:53 13:23:07 14° 294° (WNW) 13:25:13 437.325/437.525
DANDE 03 Mar 13:23:15 13:24:31 12° 268° (W) 13:25:41 436.750
ESTCUBE 1 03 Mar 13:29:34 13:33:46 36° 289° (WNW) 13:37:54 437.505/2401.250
SPROUT 03 Mar 13:35:06 13:39:22 62° 100° (E) 13:43:36 437.525
TISAT 1 03 Mar 13:37:24 13:41:36 58° 101° (E) 13:45:44 437.305
Gurwin Techsat 1B 03 Mar 13:41:19 13:43:28 13° 61° (ENE) 13:45:55 435.225
ISS 03 Mar 13:48:10 13:49:14 11° 4° (N) 13:50:20 145.825
Oscar 19 03 Mar 14:03:23 14:08:31 78° 75° (ENE) 14:13:40 437.125/150
ITAMSAT 1 03 Mar 14:03:45 14:08:03 27° 67° (ENE) 14:12:29 435.822/435.867
ITUPSAT 1 03 Mar 14:04:48 14:07:55 17° 91° (E) 14:11:12 437.325
HORYU 2 03 Mar 14:44:25 14:45:18 11° 63° (ENE) 14:46:26 437.375
AO-7 03 Mar 14:45:15 14:50:32 20° 53° (NE) 14:56:09 29.400- 29.500
SWISSCUBE 03 Mar 15:05:03 15:09:54 81° 105° (ESE) 15:14:43 437.505
SPROUT 03 Mar 15:13:12 15:15:00 12° 296° (WNW) 15:16:37 437.525
BEESAT 03 Mar 15:13:35 15:18:26 89° 258° (WSW) 15:23:13 436.000
TISAT 1 03 Mar 15:15:04 15:16:58 12° 295° (WNW) 15:18:39 437.305
KKS-1 03 Mar 15:17:02 15:20:02 18° 92° (E) 15:23:10 437.445
Gurwin Techsat 1B 03 Mar 15:17:29 15:22:49 85° 257° (WSW) 15:28:11 435.225
STARS 03 Mar 15:22:58 15:24:55 13° 90° (E) 15:27:05 437.465
ISS 03 Mar 15:23:56 15:26:35 23° 24° (NNE) 15:29:15 145.825
ITUPSAT 1 03 Mar 15:41:30 15:46:09 48° 288° (WNW) 15:50:46 437.325
ITAMSAT 1 03 Mar 15:42:37 15:47:26 36° 263° (W) 15:52:15 435.822/435.867
Oscar 19 03 Mar 15:46:42 15:48:35 12° 273° (W) 15:50:08 437.125/150
JAS-2 03 Mar 15:57:22 16:01:32 23° 62° (ENE) 16:06:12 435.910
HORYU 2 03 Mar 16:16:59 16:21:25 77° 258° (WSW) 16:25:52 437.375
YUBILEINY 03 Mar 16:24:36 16:31:53 32° 85° (E) 16:39:27 435.215
AO-7 03 Mar 16:33:55 16:42:17 84° 71° (ENE) 16:50:40 29.400- 29.500
SWISSCUBE 03 Mar 16:45:23 16:47:11 12° 298° (WNW) 16:48:42 437.505
KKS-1 03 Mar 16:52:44 16:56:54 39° 288° (WNW) 17:01:00 437.445
BEESAT 03 Mar 16:54:44 16:55:38 10° 299° (WNW) 16:56:14 436.000
STARS 03 Mar 16:57:31 17:01:49 54° 286° (WNW) 17:06:04 437.465
ISS 03 Mar 17:00:01 17:03:11 52° 221° (SW) 17:06:21 145.825
BEESAT 3 03 Mar 17:14:49 17:16:44 13° 110° (ESE) 17:18:52 437.485
M-CUBED/EXP-1 PRIME 03 Mar 17:25:37 17:29:16 27° 101° (E) 17:33:11 437.505
AUBIESAT-1 03 Mar 17:27:07 17:30:41 25° 100° (E) 17:34:29 437.475
Cubesat XI-IV 03 Mar 17:36:40 17:39:56 17° 63° (ENE) 17:43:26 437.490
BEESAT 2 03 Mar 17:39:46 17:42:54 22° 113° (ESE) 17:46:10 435.950
JAS-2 03 Mar 17:40:54 17:46:12 52° 262° (W) 17:52:08 435.910
CUTE-I 03 Mar 17:44:56 17:48:39 20° 64° (ENE) 17:52:33 437.470
MOZHAYETS 4 03 Mar 18:08:25 18:13:02 65° 100° (E) 18:17:38
VERMONT LUNAR 03 Mar 18:11:37 18:14:38 28° 154° (SSE) 18:17:41 437.305
YUBILEINY 03 Mar 18:19:52 18:28:22 54° 284° (WNW) 18:36:56 435.215
PHONESAT 2.4 03 Mar 18:20:57 18:23:30 18° 149° (SSE) 18:26:06 2401.200-2431.200
AO-7 03 Mar 18:30:16 18:36:10 20° 270° (W) 18:41:36 29.400- 29.500
BEESAT 3 03 Mar 18:50:25 18:54:26 54° 305° (NW) 18:58:30 437.485
AIST 1 03 Mar 18:50:36 18:54:20 27° 74° (ENE) 18:58:06
O/OREOS (USA 219) 03 Mar 18:54:03 18:55:32 12° 50° (NE) 18:57:13 437.305
PRISM 03 Mar 19:00:05 19:02:29 15° 91° (E) 19:05:05 437.425
M-CUBED/EXP-1 PRIME 03 Mar 19:00:25 19:04:09 30° 294° (WNW) 19:08:04 437.505
AUBIESAT-1 03 Mar 19:01:42 19:05:32 32° 293° (WNW) 19:09:32 437.475
Cubesat XI-IV 03 Mar 19:14:14 19:19:34 65° 258° (WSW) 19:24:56 437.490
BEESAT 2 03 Mar 19:17:07 19:20:55 34° 309° (NW) 19:24:45 435.950
AIST 2 03 Mar 19:18:03 19:22:18 87° 299° (WNW) 19:26:38 435.215
CUTE-I 03 Mar 19:23:06 19:28:21 55° 260° (W) 19:33:39 437.470
BRITE-PL 03 Mar 19:39:12 19:41:34 13° 63° (ENE) 19:44:11 437.365/2234.400
MOZHAYETS 4 03 Mar 19:47:27 19:49:48 14° 296° (WNW) 19:51:56
VERMONT LUNAR 03 Mar 19:48:49 19:52:20 81° 167° (SSE) 19:55:49 437.305
PHONESAT 2.4 03 Mar 19:57:58 20:01:35 62° 164° (SSE) 20:05:11 2401.200-2431.200
CUBESAT XI-V 03 Mar 20:09:28 20:14:14 88° 284° (WNW) 20:18:55 437.345
DOVE 4 03 Mar 20:12:19 20:13:38 11° 64° (ENE) 20:15:14 437.250
AIST 1 03 Mar 20:28:19 20:31:56 24° 270° (W) 20:35:26
O/OREOS (USA 219) 03 Mar 20:31:04 20:35:41 83° 249° (WSW) 20:40:15 437.305
STRAND 1 03 Mar 20:33:59 20:39:10 89° 99° (E) 20:44:19 437.568
PRISM 03 Mar 20:34:14 20:38:16 43° 288° (WNW) 20:42:16 437.425
SEEDS 03 Mar 20:49:12 20:52:30 24° 70° (ENE) 20:55:53 437.485
HO-68 03 Mar 20:51:37 20:58:30 54° 68° (ENE) 21:05:27 435.675
CANX-2 03 Mar 20:53:13 20:57:00 34° 72° (ENE) 21:00:51 2200.000
AIST 2 03 Mar 20:59:47 21:01:38 12° 321° (NW) 21:03:21 435.215
CUTE 1.7 + AOD 2 03 Mar 21:11:23 21:15:26 50° 74° (ENE) 21:19:33 437.475
BRITE-PL 03 Mar 21:13:49 21:19:30 89° 254° (WSW) 21:24:57 437.365/2234.400
GOMX 1 03 Mar 21:14:43 21:20:03 66° 76° (ENE) 21:25:09 467.674
PCSat 03 Mar 21:19:16 21:24:22 44° 113° (ESE) 21:29:32 145.827
DELFI C3 03 Mar 21:21:30 21:23:35 14° 66° (ENE) 21:25:50 145.870
UWE-3 03 Mar 21:25:58 21:28:08 14° 66° (ENE) 21:30:28 435.000/436.395/437.385
VERMONT LUNAR 03 Mar 21:26:46 21:30:15 88° 350° (N) 21:33:46 437.305
PHONESAT 2.4 03 Mar 21:36:22 21:40:02 83° 358° (N) 21:43:41 2401.200-2431.200
DOVE 4 03 Mar 21:45:42 21:50:53 89° 265° (W) 21:55:49 437.250
CINEMA 3 03 Mar 21:47:51 21:52:30 52° 74° (ENE) 21:56:58 145.822/145.860
Oscar 11 03 Mar 21:50:49 21:54:50 40° 72° (ENE) 21:58:53 145.826/435.025
AAUSAT CUBESAT 2 03 Mar 21:51:54 21:56:03 89° 78° (ENE) 22:00:13 437.432
COMPASS 1 03 Mar 21:55:12 21:59:21 73° 259° (WSW) 22:03:31 437.405
CUBEBUG 2 03 Mar 22:03:03 22:07:17 41° 73° (ENE) 22:11:25 437.445
STRAND 1 03 Mar 22:15:45 22:17:42 12° 299° (WNW) 22:19:22 437.568
DX 1 03 Mar 22:16:32 22:20:36 39° 71° (ENE) 22:24:43 434.975-435.025
50 SAT 03 Mar 22:24:20 22:26:46 16° 67° (ENE) 22:29:19 437.505
SEEDS 03 Mar 22:24:39 22:28:15 27° 265° (W) 22:31:49 437.485
AISAT 03 Mar 22:24:51 22:28:07 21° 67° (ENE) 22:31:30 437.250
CANX-2 03 Mar 22:30:01 22:33:05 19° 268° (W) 22:36:03 2200.000
GONETS M04 03 Mar 22:32:32 22:40:38 47° 89° (E) 22:48:50
VELOX 1 03 Mar 22:33:35 22:37:09 24° 68° (ENE) 22:40:49 145.980
HUMSAT D 03 Mar 22:35:24 22:39:06 32° 71° (ENE) 22:42:49 437.325/437.525
FUNcube-1 03 Mar 22:37:06 22:41:25 65° 76° (ENE) 22:45:41 145.935
ZACube-1 03 Mar 22:38:40 22:43:02 70° 75° (ENE) 22:47:18 437.345
HO-68 03 Mar 22:40:33 22:46:36 28° 266° (W) 22:52:30 435.675
UKube-1 03 Mar 22:44:38 22:48:59 77° 75° (ENE) 22:53:21 .
CUTE 1.7 + AOD 2 03 Mar 22:49:41 22:51:44 13° 271° (W) 22:53:36 437.475
ESTCUBE 1 03 Mar 22:53:04 22:56:11 19° 67° (ENE) 22:59:28 437.505/2401.250
RS-15 03 Mar 22:54:27 23:02:18 25° 104° (ESE) 23:10:43 29.354- 29.394
DELFI C3 03 Mar 22:54:35 22:58:27 45° 261° (W) 23:02:21 145.870
GOMX 1 03 Mar 22:55:27 22:58:37 15° 271° (W) 23:01:27 467.674
BRITE-PL 03 Mar 22:56:57 22:58:44 11° 274° (W) 23:00:07 437.365/2234.400
UWE-3 03 Mar 22:59:57 23:04:20 55° 260° (W) 23:08:36 435.000/436.395/437.385
PCSat 03 Mar 23:03:22 23:08:00 28° 311° (NW) 23:12:36 145.827
UNISAT 6 03 Mar 23:04:23 23:06:44 15° 91° (E) 23:09:18 437.425
VERMONT LUNAR 03 Mar 23:04:47 23:08:03 38° 203° (SSW) 23:11:18 437.305
PHONESAT 2.4 03 Mar 23:14:53 23:18:28 58° 198° (SSW) 23:22:02 2401.200-2431.200
QB50P2 03 Mar 23:18:20 23:19:17 11° 88° (E) 23:20:31 145.880/145.840
CINEMA 3 03 Mar 23:27:07 23:30:01 15° 269° (W) 23:32:39 145.822/145.860
TIGRISAT 03 Mar 23:28:03 23:31:37 26° 95° (E) 23:35:19 435.000
Oscar 11 03 Mar 23:28:22 23:31:15 17° 269° (W) 23:33:58 145.826/435.025
DUCHIFAT 1 03 Mar 23:31:20 23:33:44 15° 91° (E) 23:36:18 145.980
CUBEBUG 2 03 Mar 23:41:06 23:44:11 17° 268° (W) 23:47:05 437.445
ANTELSAT 03 Mar 23:41:51 23:45:53 38° 98° (E) 23:49:59 437.575/2403.000
POLYITAN 1 03 Mar 23:51:46 23:55:21 27° 95° (E) 23:58:58 437.675
POPSAT HIP 1 03 Mar 23:51:48 23:55:22 26° 95° (E) 23:58:58 437.405
DX 1 03 Mar 23:53:56 23:57:03 18° 268° (W) 00:00:03 434.975-435.025
50 SAT 03 Mar 23:57:48 00:01:32 37° 263° (W) 00:05:14 437.505
CUBEBUG 1 04 Mar 00:00:03 00:04:30 89° 78° (ENE) 00:08:59 437.445
AISAT 04 Mar 00:00:19 00:04:32 38° 263° (W) 00:08:43 437.250
VELOX 1 04 Mar 00:09:37 00:13:38 31° 264° (W) 00:17:36 145.980
HUMSAT D 04 Mar 00:11:48 00:14:59 20° 267° (W) 00:18:01 437.325/437.525
NANOSAT C BR1 04 Mar 00:14:14 00:18:20 48° 99° (E) 00:22:24 145.865
FUNcube-1 04 Mar 00:17:26 00:18:17 10° 272° (W) 00:18:50 145.935
ESTCUBE 1 04 Mar 00:28:32 00:32:48 41° 262° (W) 00:37:07 437.505/2401.250
SPROUT 04 Mar 00:28:42 00:32:49 44° 73° (ENE) 00:36:58 437.525
TISAT 1 04 Mar 00:29:12 00:33:12 40° 72° (ENE) 00:37:14 437.305
GONETS M04 04 Mar 00:29:45 00:37:41 37° 289° (WNW) 00:45:31
UNISAT 6 04 Mar 00:39:43 00:43:51 46° 287° (WNW) 00:48:00 437.425
BEESAT 04 Mar 00:45:47 00:46:59 11° 62° (ENE) 00:48:28 436.000
QB50P1 04 Mar 00:47:17 00:51:29 68° 286° (WNW) 00:55:41 145.935-145.965
DANDE 04 Mar 00:48:24 00:54:49 44° 97° (E) 00:59:47 436.750
QB50P2 04 Mar 00:51:31 00:55:42 60° 286° (WNW) 00:59:51 145.880/145.840
BUGSAT 1 04 Mar 00:52:27 00:56:39 81° 282° (WNW) 01:00:43 437.445
PHONESAT 2.4 04 Mar 00:54:09 00:56:30 16° 212° (SSW) 00:58:47 2401.200-2431.200
RS-15 04 Mar 01:02:37 01:13:33 82° 303° (WNW) 01:24:41 29.354- 29.394
TIGRISAT 04 Mar 01:04:47 01:08:22 26° 290° (WNW) 01:11:55 435.000
DUCHIFAT 1 04 Mar 01:05:51 01:09:51 42° 287° (WNW) 01:13:48 145.980
ITUPSAT 1 04 Mar 01:11:24 01:14:47 20° 66° (ENE) 01:18:19 437.325
CUSAT 1 04 Mar 01:12:22 01:18:45 86° 100° (E) 01:23:31 437.405
ANTELSAT 04 Mar 01:19:27 01:22:28 18° 293° (WNW) 01:25:23 437.575/2403.000
POPSAT HIP 1 04 Mar 01:27:43 01:31:12 25° 291° (WNW) 01:34:36 437.405
POLYITAN 1 04 Mar 01:27:45 01:31:13 24° 291° (WNW) 01:34:35 437.675
BEESAT 3 04 Mar 01:34:42 01:35:19 10° 37° (NE) 01:36:07 437.485
NANOSAT C BR1 04 Mar 01:51:25 01:53:50 15° 294° (WNW) 01:56:05 145.865
BEESAT 2 04 Mar 02:00:00 02:02:24 15° 42° (NE) 02:04:54 435.950
TISAT 1 04 Mar 02:06:23 02:09:13 17° 268° (W) 02:11:55 437.305
SPROUT 04 Mar 02:06:28 02:09:11 16° 269° (W) 02:11:44 437.525
SWISSCUBE 04 Mar 02:11:02 02:15:48 86° 75° (ENE) 02:20:37 437.505
KKS-1 04 Mar 02:15:21 02:18:08 17° 66° (ENE) 02:21:05 437.445
Oscar 19 04 Mar 02:15:59 02:20:21 28° 95° (E) 02:24:47 437.125/150
BEESAT 04 Mar 02:19:27 02:24:14 84° 255° (WSW) 02:29:04 436.000
STARS 04 Mar 02:20:26 02:22:07 12° 64° (ENE) 02:23:59 437.465
SO-50 04 Mar 02:28:55 02:33:24 57° 118° (ESE) 02:38:03 436.795
DANDE 04 Mar 02:32:46 02:38:10 25° 285° (WNW) 02:42:23 436.750
YUBILEINY 04 Mar 02:36:04 02:40:27 15° 57° (ENE) 02:45:25 435.215
ITUPSAT 1 04 Mar 02:47:50 02:52:24 44° 261° (W) 02:57:00 437.325
CUSAT 1 04 Mar 03:00:18 03:01:49 11° 291° (WNW) 03:02:53 437.405
BEESAT 3 04 Mar 03:10:04 03:14:13 76° 57° (ENE) 03:18:17 437.485
RS-15 04 Mar 03:18:51 03:28:01 28° 331° (NNW) 03:37:10 29.354- 29.394
Gurwin Techsat 1B 04 Mar 03:34:29 03:39:28 40° 97° (E) 03:44:28 435.225
BEESAT 2 04 Mar 03:36:55 03:41:03 65° 241° (WSW) 03:45:06 435.950
AIST 2 04 Mar 03:40:34 03:44:45 51° 54° (NE) 03:48:51 435.215
KKS-1 04 Mar 03:50:08 03:54:28 46° 261° (W) 03:58:47 437.445
STARS 04 Mar 03:53:41 03:58:07 66° 259° (W) 04:02:31 437.465
Oscar 19 04 Mar 03:55:09 03:59:44 33° 291° (WNW) 04:04:16 437.125/150
ITAMSAT 1 04 Mar 03:55:30 04:00:46 84° 106° (ESE) 04:05:58 435.822/435.867
HORYU 2 04 Mar 04:09:41 04:13:01 21° 93° (E) 04:16:28 437.375
SO-50 04 Mar 04:10:50 04:14:21 20° 318° (NW) 04:17:52 436.795
M-CUBED/EXP-1 PRIME 04 Mar 04:15:17 04:18:01 24° 65° (ENE) 04:20:54 437.505
AUBIESAT-1 04 Mar 04:16:22 04:19:00 22° 64° (ENE) 04:21:46 437.475
YUBILEINY 04 Mar 04:30:19 04:39:12 76° 80° (E) 04:48:02 435.215
AO-7 04 Mar 04:36:59 04:43:45 28° 94° (E) 04:50:44 29.400- 29.500
JAS-2 04 Mar 04:49:31 04:55:41 28° 91° (E) 05:02:15 435.910
MOZHAYETS 4 04 Mar 05:09:47 05:14:14 56° 74° (ENE) 05:18:44
Gurwin Techsat 1B 04 Mar 05:14:54 05:19:17 26° 293° (WNW) 05:23:32 435.225
AIST 2 04 Mar 05:20:28 05:22:59 15° 250° (WSW) 05:25:18 435.215
ITAMSAT 1 04 Mar 05:37:13 05:39:38 13° 299° (WNW) 05:41:46 435.822/435.867
RS-15 04 Mar 05:38:11 05:45:35 19° 6° (N) 05:53:16 29.354- 29.394
HORYU 2 04 Mar 05:45:45 05:49:48 34° 289° (WNW) 05:53:48 437.375
M-CUBED/EXP-1 PRIME 04 Mar 05:50:52 05:53:05 16° 262° (W) 05:55:15 437.505
AUBIESAT-1 04 Mar 05:51:32 05:53:56 18° 262° (W) 05:56:19 437.475
PRISM 04 Mar 05:51:36 05:52:51 11° 64° (ENE) 05:54:18 437.425
PCSat 04 Mar 06:07:41 06:12:34 33° 51° (NE) 06:17:28 145.827
STRAND 1 04 Mar 06:12:54 06:15:43 15° 63° (ENE) 06:18:45 437.568
YUBILEINY 04 Mar 06:28:44 06:35:13 22° 278° (W) 06:41:15 435.215
AO-7 04 Mar 06:28:58 06:37:08 62° 293° (WNW) 06:45:14 29.400- 29.500
JAS-2 04 Mar 06:33:44 06:41:06 63° 288° (WNW) 06:48:49 435.910
MOZHAYETS 4 04 Mar 06:49:31 06:51:54 14° 271° (W) 06:54:04
CUBESAT XI-V 04 Mar 07:12:05 07:16:47 83° 74° (ENE) 07:21:32 437.345
AIST 1 04 Mar 07:20:40 07:23:20 17° 87° (E) 07:26:11
PRISM 04 Mar 07:23:46 07:27:53 63° 259° (W) 07:32:02 437.425
Cubesat XI-IV 04 Mar 07:32:09 07:37:25 53° 100° (E) 07:42:39 437.490
